Weather History for Anchorage Merrill, AK

Change the Weather History Date:

Saturday, January 18, 2014

  Actual Average Record
Temperature  
Mean Temperature 38 °F -  
Max Temperature 42 °F 22 °F 42 °F (2014)
Min Temperature 35 °F 9 °F -16 °F (2012)
Degree Days  
Heating Degree Days 26    
Moisture  
Dew Point 28 °F    
Average Humidity 70    
Maximum Humidity 81    
Minimum Humidity 57    
Precipitation  
Precipitation 0.11 in - - ()
Sea Level Pressure  
Sea Level Pressure 29.38 in    
Wind  
Wind Speed 8 mph (SSW)    
Max Wind Speed 16 mph    
Max Gust Speed 25 mph    
Visibility 8 miles    
Events Rain , Snow    
Averages and records for this station are not official NWS values.
T = Trace of Precipitation, MM = Missing Value Source: NWS Daily Summary

Daily Weather History Graph

Daily Weather History Graph

Search for Another Location

Airport:

Trip Planner

Search our weather history database for the weather conditions in past years. The results will help you decide how hot, cold, wet, or windy it might be!

Date:

Astronomy

Jan. 18, 2014 Rise Set
Actual Time 9:50 AM AKST 4:29 PM AKST
Civil Twilight 8:56 AM AKST 5:24 PM AKST
Nautical Twilight 8:00 AM AKST 6:20 PM AKST
Astronomical Twilight 7:08 AM AKST 7:12 PM AKST
Moon 8:26 PM AKST (1/18) 9:56 AM AKST (1/18)
Length of Visible Light 8h 28m
Length of Day
6h 38m
Waning Gibbous, 94% of the Moon is Illuminated
Jan 18
Waning Gibbous
Jan 23
Last Quarter
Jan 30
New
Feb 6
First Quarter
Feb 14
Full

Hourly Weather History & Observations

Time (AKST) Temp. Windchill Dew Point Humidity Pressure Visibility Wind Dir Wind Speed Gust Speed Precip Events Conditions
12:53 AM 37.9 °F 34.4 °F 28.9 °F 70% 29.10 in 10.0 mi SSE 4.6 mph - N/A   Overcast
1:53 AM 39.0 °F 34.0 °F 28.9 °F 67% 29.09 in 10.0 mi NNE 6.9 mph - N/A   Mostly Cloudy
3:53 AM 39.0 °F 35.7 °F 28.0 °F 65% 29.08 in 10.0 mi NNE 4.6 mph - N/A   Mostly Cloudy
4:53 AM 37.9 °F 33.5 °F 28.0 °F 68% 29.10 in 10.0 mi NW 5.8 mph - N/A   Mostly Cloudy
5:53 AM 35.1 °F 32.2 °F 27.0 °F 72% 29.10 in 10.0 mi Variable 3.5 mph - N/A   Mostly Cloudy
6:53 AM 37.0 °F 33.3 °F 28.0 °F 70% 29.11 in 10.0 mi NW 4.6 mph - N/A   Mostly Cloudy
7:53 AM 36.0 °F 32.1 °F 28.0 °F 73% 29.12 in 10.0 mi NNE 4.6 mph - N/A   Overcast
8:53 AM 37.9 °F 35.5 °F 28.0 °F 68% 29.15 in 10.0 mi Variable 3.5 mph - N/A   Overcast
9:53 AM 39.0 °F 36.8 °F 28.0 °F 65% 29.18 in 10.0 mi NW 3.5 mph - N/A   Overcast
10:53 AM 42.1 °F 35.7 °F 28.0 °F 58% 29.24 in 10.0 mi SSW 11.5 mph - N/A   Overcast
11:53 AM 41.0 °F 33.5 °F 28.9 °F 62% 29.28 in 10.0 mi SSW 13.8 mph 18.4 mph N/A   Overcast
12:53 PM 41.0 °F 34.7 °F 30.0 °F 65% 29.32 in 10.0 mi SSW 10.4 mph - N/A   Overcast
1:48 PM 37.4 °F 29.8 °F 32.0 °F 81% 29.37 in 6.0 mi SSW 11.5 mph - 0.01 in Rain Light Rain
1:53 PM 37.9 °F 30.9 °F 32.0 °F 79% 29.38 in 9.0 mi South 10.4 mph - 0.01 in Rain Light Rain
2:14 PM 37.4 °F 29.8 °F 32.0 °F 81% 29.38 in 5.0 mi SSW 11.5 mph - 0.01 in Rain Light Rain
2:53 PM 37.9 °F 30.9 °F 30.0 °F 73% 29.42 in 10.0 mi SSW 10.4 mph - 0.01 in Rain Light Rain
3:23 PM 37.4 °F 30.3 °F 30.2 °F 75% 29.43 in 5.0 mi SSW 10.4 mph - 0.01 in Rain Light Rain
3:46 PM 37.4 °F 29.8 °F 30.2 °F 75% 29.45 in 5.0 mi SSW 11.5 mph - 0.02 in Rain Light Rain
3:53 PM 37.0 °F 29.3 °F 30.9 °F 79% 29.46 in 5.0 mi SSW 11.5 mph - 0.02 in Rain Light Rain
4:10 PM 35.6 °F 27.5 °F 30.2 °F 81% 29.47 in 3.0 mi South 11.5 mph 18.4 mph 0.02 in Rain Light Rain
4:53 PM 36.0 °F 28.5 °F 30.0 °F 79% 29.51 in 3.0 mi South 10.4 mph - 0.05 in Rain , Snow Snow
5:53 PM 36.0 °F 27.5 °F 30.0 °F 79% 29.55 in 4.0 mi South 12.7 mph 23.0 mph 0.02 in Snow Light Snow
6:53 PM 35.1 °F 25.2 °F 28.9 °F 78% 29.59 in 3.0 mi South 16.1 mph 25.3 mph 0.00 in Snow Light Snow
8:10 PM 37.4 °F 32.1 °F 26.6 °F 65% 29.63 in 10.0 mi South 6.9 mph 19.6 mph N/A   Unknown
8:18 PM 37.4 °F 30.8 °F 26.6 °F 65% 29.63 in 10.0 mi South 9.2 mph - N/A   Mostly Cloudy
8:53 PM 37.0 °F 28.1 °F 26.1 °F 65% 29.66 in 10.0 mi SSW 15.0 mph 24.2 mph N/A   Scattered Clouds
9:53 PM 37.0 °F 29.8 °F 25.0 °F 62% 29.71 in 10.0 mi South 10.4 mph - N/A   Mostly Cloudy
10:53 PM 36.0 °F 28.0 °F 23.0 °F 59% 29.75 in 10.0 mi SSW 11.5 mph - 0.00 in Snow Light Snow
11:53 PM 36.0 °F 30.3 °F 21.9 °F 57% 29.78 in 10.0 mi SW 6.9 mph - 0.00 in   Mostly Cloudy